Powrót do katalogu

BLOCK DM-SL R/B

AktywnyHEO
NORAD 29237·ROCKET BODY· XX

Wystrzelony Jun 18, 2006 z Sea Launch Platform

Loading…

Następne Przeloty (najbliższe 24 godziny)

TLE

ŚwieżeSource: Space-Track

Epoka: Sep 14, 2026, 13:39 UTC

1 29237U 06023B   26257.56926967 -.00000074  00000-0  00000-0 0  9998
2 29237   1.0080  23.5312 6626727  65.9880 347.9527  2.15891213159602

Śledź BLOCK DM-SL R/B w czasie rzeczywistym z AllMySat

Download on the App Store